Regional Weather Roundup
Issued by NWS

Home | Current Version | Previous Version | Graphics & Text | Print | Product List | Glossary On
Versions: 1 2 3 4 5 6 7 8 9 10 11 12 13 14 15 16 17 18 19 20 21 22 23 24 25 26 27 28 29 30 31 32 33 34 35 36 37 38 39 40 41 42 43 44 45 46 47 48 49 50
145
ASUS43 KLSX 241259
RWRMO

WEATHER SUMMARY FOR MISSOURI
NATIONAL WEATHER SERVICE SPRINGFIELD MO
800 AM CDT MON JUL 24 2017

NOTE: "FAIR" INDICATES FEW OR NO CLOUDS BELOW 12,000 FEET WITH NO
       SIGNIFICANT WEATHER AND/OR OBSTRUCTIONS TO VISIBILITY.
       CURRENT SKY AND/OR WEATHER CONDITIONS ARE NOT AVAILABLE FOR
       CHILLICOTHE AND FARMINGTON.

MOZ001>031-035>038-043-044-053-054-241400-
...NORTHERN AND WESTERN MISSOURI...

CITY           SKY/WX    TMP DP  RH WIND       PRES   REMARKS
KANSAS CTY INT PTSUNNY   72  65  78 NE8       30.01R
KANSAS C DTWN  MOSUNNY   74  66  76 NE7       29.99R
LEE`S SUMMIT   PTSUNNY   72  66  81 NE7       30.01R
ST JOSEPH      SUNNY     70  67  90 N3        30.02R
CHILLICOTHE      N/A     70  64  81 N6        30.03R
KIRKSVILLE     SUNNY     68  63  84 NE9       30.03R

$$
MOZ066>068-077>081-088>096-101>105-241400-
...SOUTHWEST MISSOURI...

CITY           SKY/WX    TMP DP  RH WIND       PRES   REMARKS
SPRINGFIELD    SUNNY     75  71  87 NW3       29.99R
JOPLIN         SUNNY     77  73  87 SW8       29.99R
BRANSON        MOSUNNY   75  70  83 CALM      30.00R

$$
MOZ032>034-039>042-045>050-055>058-069>072-241400-
...CENTRAL MISSOURI...

CITY           SKY/WX    TMP DP  RH WIND       PRES   REMARKS
COLUMBIA       CLOUDY    73  66  78 E7        30.00R
JEFFERSON CITY SUNNY     76  69  79 CALM      29.98R
ROLLA          SUNNY     73  67  81 E7        29.98R
SEDALIA        MOSUNNY   73  70  90 NE6       30.01R
OSAGE BEACH    SUNNY     74  70  87 NE5       29.98R

$$
MOZ051-052-059>065-241400-
...EAST CENTRAL MISSOURI...

CITY           SKY/WX    TMP DP  RH WIND       PRES   REMARKS
ST LOUIS INTL  MOSUNNY   77  65  66 NE5       29.97R
SPIRIT OF STL  MOSUNNY   76  67  73 N3        29.96R
ST CHARLES     SUNNY     75  66  73 N6        29.96R

$$
MOZ072>076-082>087-097>100-106>115-241400-
...SOUTH CENTRAL AND SOUTHEAST MISSOURI...

CITY           SKY/WX    TMP DP  RH WIND       PRES   REMARKS
CAPE GIRARDEAU CLOUDY    75  72  90 SW3       29.93R
FARMINGTON     SUNNY     76  70  82 VRB5      29.98R
POPLAR BLUFF   PTSUNNY   75  74  96 CALM      29.94R
WEST PLAINS    SUNNY     80  67  64 CALM      29.97R

$$




USA.gov is the U.S. government's official web portal to all federal, state and local government web resources and services.